Location: *
(49.6619°S, 177.4603°W)
Time: 06:54:33
(UTC+00:00)

Cosmos 2074 Rocket - Pass Details

Date: 31 January 2023
Orbit: 967 x 986 km, 82.9° (Epoch: 01 April)

Event Time Altitude Azimuth Distance (km) Brightness Sun altitude
Exits shadow 10:22:13 15° 334° (NNW) 2,372 5.7 -19.3°
Maximum altitude 10:27:25 61° 257° (WSW) 1,121 4.4 -19.7°
Drops below altitude 10° 10:33:42 10° 176° (S) 2,767 7.3 -20.1°
Sets 10:36:17 0° 172° (S) 3,718 8.1 -20.2°
